Showing default

CYGFM03, 41891

Orbit data source: Space-Track

CYGFM03, 41891 is an American payload satellite in LEO that was launched on Thu, 15 Dec 2016 UTC via a PEGASUS XL launch vehicle from the Pegasus Launch, Eastern Range Air Space (ERAS). Payload-class satellites include a variety of spacecraft equipped with specific instruments for various scientific and technological missions. These include communications satellites like Starlink; space stations such as the ISS; scientific satellites like the Hubble; Earth observation satellites from companies like Planet Labs, Umbra, and HawkEye 360; GPS; miniature CubeSats for education and research; and military/defense satellites.

Loading next visibility...
Identifier
41891, 2016-078H
Orbit
LEO
Country
Flag of USUS
Related business
Manufacturer
SST-US
Mission
Extended mission Civil Earth Obs Sci
Bus & Motor
CYGNSS, Unknown motor
Mass
29 kg wet, 29 kg dry
Launch date (UTC)
2016-12-15 (9 years ago)
Launch vehicle
PEGASUS XL
Launch site
Pegasus Launch, Eastern Range Air Space (ERAS)
Object type
Payload
Rocket body
Debris
Shape & HBR
Half Hex Cyl + 2 Pan, 2.5 m
Radar Cross Section
0.450 m², Medium (>0.1 m² and < 1m²)

Expand to show TLE details & history
Last TLE update: 14 hours ago

TLE from 14 hours ago
0 CYGFM03
1 41891U 16078H   25293.62882587  .00028284  00000-0  54149-3 0  9992
2 41891  34.9445  10.7933 0007853  71.6775 288.4800 15.47024769491697
Epoch: 2025-10-20T15:05Z
TLE epoch observation values (Epoch: 2025-10-20T15:05:30.555Z)
Latitude
-0°
Longitude
115.08758°
Altitude
422.636 km
Speed
7.661 km/s
True Right ascension
00h 43m 10s
True Declination
0° 00' 00"
Sunlit
Object was in full shadow at epoch
Visualization orbit readout
Latitude
Unknown
Longitude
Unknown
Altitude
Unknown
Speed
Unknown
Apparent Right ascension
Unknown
Apparent Declination
Unknown
Sunlit
N/A
Visualization observer readout
Local Sidereal Time
00:15:06
Azimuth
Unknown
Elevation
Unknown
Doppler factor
Unknown
Orbital elements
Apogee altitude
434.074 km
Perigee altitude
423.383 km
Semi-major axis
6,806.865 km
Eccentricity
0.00079
Inclination
34.9445°
RAAN
10.7933°
Arg. of periapsis
71.6775°
True anomaly
288.39463°
Mean anomaly
288.48°
Eccentric anomaly
288.43732°
Mean motion
3.86476 °/min
Orbital period
93.15 mins
BSTAR
0.00054149
Loading maneuver chart data...
Computing Atmospheric mass density...
Loading historical data...
Loading historical data...
Loading historical data...
Loading historical data...
Loading historical data...
Loading historical data...
Loading historical data...

Documentation

Showing up to 5 results
|